User: anonymous   Login
Location: Albany
(35.0000°S, 118.0000°E)
Time: 23:30:43
(UTC-05:00)
Language:

Centaur D-1AR AC-48 - Orbit

View from above orbital plane
View from above orbital plane
View from above satellite
View from above satellite

Ground track
Ground track

The orbit data is extracted from the following two-line orbital elements,

1 10779U 78035B   17055.62090557 -.00000023  00000-0 -32353-3 0  9995
2 10779  21.3249 107.4707 7190707 305.3023  40.7950  2.22658783316176
Epoch (UTC): 24 February 2017 14:54:06
Eccentricity: 0.7190707
inclination: 21.3249°
perigee height: 581 km
apogee height: 36208 km
right ascension of ascending node: 107.4707°
argument of perigee: 305.3023°
revolutions per day: 2.22658783
mean anomaly at epoch: 40.7950°
orbit number at epoch: 31617

The dashed part of the orbit path shows where the satellite is in the earth's shadow,  

DLR